Regional Weather Roundup
Issued by NWS

Home | Current Version | Previous Version | Text Only | Print | Product List | Glossary Off
Versions: 1 2 3 4 5 6 7 8 9 10 11 12 13 14 15 16 17 18 19 20 21 22 23 24 25 26 27 28 29 30 31 32 33 34 35 36 37 38 39 40 41 42 43 44 45 46 47 48 49 50

000
ASUS44 KMEG 171210
RWRTN
TENNESSEE HOURLY STATE WEATHER ROUNDUP
NATIONAL WEATHER SERVICE MEMPHIS TN
600 AM CST TUE JAN 17 2017

TNZ002-004-019-021-049-052-054-088>092-171300-
WEST TENNESSEE

CITY           SKY/WX    TMP DP  RH WIND       PRES   REMARKS
MEMPHIS INTL   LGT RAIN  53  50  89 W10       30.05R
NWS MEMPHIS      N/A     53 N/A N/A MISG        N/A
JACKSON        CLOUDY    60  32  34 W10       30.03R
DYERSBURG      CLOUDY    54  48  82 NW9       30.03R
UNION CITY     CLOUDY    55  55 100 W12       30.00R
PARIS          CLOUDY    57  55  94 W9        29.99R
HUNTINGDON     MOCLDY    61  59  94 W10G16    29.99R FOG
$$

TNZ008-025-027-028-033-062-065-066-171300-
NORTH MIDDLE TENNESSEE

CITY           SKY/WX    TMP DP  RH WIND       PRES   REMARKS
NASHVILLE      CLOUDY    65  59  81 SW12G17   30.02R
PORTLAND       CLOUDY    63  61  94 S13       29.99R
CLARKSVILLE    CLOUDY    64  60  87 SW13      29.96R
SMYRNA         LGT RAIN  64  60  87 S10G23    30.03S
GALLATIN       CLOUDY    64  61  88 S7        30.03R
CROSSVILLE     CLOUDY    58  52  80 S8        30.10R
$$

TNZ061-075-076-078-094-096-097-171300-
SOUTH MIDDLE TENNESSEE

CITY           SKY/WX    TMP DP  RH WIND       PRES   REMARKS
FAYETTEVILLE   CLOUDY    63  59  88 S16G23    30.09F
TULLAHOMA      CLOUDY    61  57  88 S12       30.08F
WINCHESTER     CLOUDY    63  55  77 S8        30.10F
MCMINNVILLE    CLOUDY    63  55  77 S12       30.06F
COLUMBIA       MOCLDY   N/A N/A N/A S13       30.01S
SHELBYVILLE    CLOUDY    64  61  88 S14       30.06S
$$

TNZ017-018-042-046-047-171300-
NORTHEAST TENNESSEE

CITY           SKY/WX    TMP DP  RH WIND       PRES   REMARKS
TRI CITIES     CLOUDY    54  50  86 CALM      30.12S
ELIZABETHTON   CLOUDY    54  50  87 CALM      30.13S
$$

TNZ012-013-036-069-073-074-171300-
CENTRAL EAST TENNESSEE

CITY           SKY/WX    TMP DP  RH WIND       PRES   REMARKS
KNOXVILLE      CLOUDY    62  52  69 SW15      30.10S
OAK RIDGE      CLOUDY    56  53  90 CALM      30.12F
GATLINBURG     PTCLDY    54  50  87 CALM      30.10S
MORRISTOWN     CLOUDY    54  52  94 CALM      30.11S
JACKSBORO      CLOUDY    59  55  88 CALM      30.10F
$$

TNZ083-085-099-171300-
SOUTHEAST TENNESSEE

CITY           SKY/WX    TMP DP  RH WIND       PRES   REMARKS
CHATTANOOGA    MOCLDY    60  53  77 S9        30.14F
$$

SKY/WX REPORTED AS FAIR MEANS FEW OR NO CLOUDS BELOW
12 THOUSAND FEET.





USA.gov is the U.S. government's official web portal to all federal, state and local government web resources and services.